Flag for Finland Weather past 2 weeks in Espoo, Finland

Now
57 °F

Partly sunny.


Feels Like: 55 °F
Forecast: 44 / 61 °F
Wind: 8 mph from North

Location: Helsinki-Vantaa

Current Time: Aug 30, 2014 at 1:48:12 PM

Latest Report: Aug 30, 2014 at 1:20 PM


Visibility: N/A

Pressure: 30.04 "Hg

Humidity: 51%

Dew point: 39 °F

Location of EspooLocation

Historic Weather in Espoo — Graph

°F

Espoo temperature yesterday

Maximum temperature yesterday: 61 °F (at 2:50 PM)
Minimum temperature yesterday: 50 °F (at 1:20 AM)
Average temperature yesterday: 55 °F

Past Weeks' High & Low Weather Summary

 TemperatureHumidityPressure
High73 °F (Aug 15, 3:20 PM)100% (Aug 15, 11:50 PM)30.04 "Hg (Aug 15, 11:50 PM)
Low48 °F (Aug 30, 5:20 AM)43% (Aug 17, 1:50 PM)29.33 "Hg (Aug 26, 6:50 AM)
Average58 °F84%29.63 "Hg
* Reported Aug 15 12:20 PM — Aug 30 12:50 PM, Espoo, Weather by CustomWeather, © 2014

Note: Actual official high and low records may vary slightly from our data, if they occured in-between our weather recording intervals... More about our weather records

Advertising

Espoo weather history for previous 24 hours

 ConditionsComfort  
Time TempWeatherWind HumidityBarometerVisibility
12:50 PM
Aug 30
57 °FPartly sunny.10 mph55%30.04 "HgN/A
12:20 PM57 °FPartly sunny.10 mph44%30.04 "HgN/A
11:50 AM57 °FPartly sunny.7 mph44%30.04 "HgN/A
11:20 AM55 °FPartly sunny.8 mph51%30.04 "HgN/A
10:50 AM57 °FPassing clouds.8 mph51%30.04 "HgN/A
10:20 AM54 °FPartly sunny.6 mph67%30.04 "HgN/A
9:50 AM54 °FPartly sunny.7 mph72%30.01 "HgN/A
9:20 AM54 °FSunny.8 mph72%30.01 "Hg10 mi
8:50 AM52 °FSunny.8 mph88%30.01 "Hg10 mi
8:20 AM50 °FSunny.7 mph94%30.01 "Hg10 mi
7:50 AM48 °FSunny.9 mph94%30.01 "Hg10 mi
7:20 AM48 °FSunny.8 mph94%30.01 "Hg10 mi
6:50 AM48 °FClear.8 mph94%29.98 "Hg10 mi
6:20 AM48 °FClear.8 mph94%29.98 "Hg10 mi
5:50 AM48 °FClear.6 mph94%29.98 "Hg10 mi
5:20 AM48 °FClear.6 mph94%29.98 "Hg10 mi
4:50 AM50 °FClear.6 mph94%29.98 "Hg10 mi
4:20 AM50 °FClear.6 mph94%29.95 "Hg10 mi
3:50 AM50 °FClear.5 mph94%29.95 "Hg10 mi
3:20 AM50 °FPassing clouds.5 mph94%29.95 "HgN/A
2:50 AM50 °FPassing clouds.6 mph94%29.95 "HgN/A
2:20 AM50 °FPassing clouds.6 mph94%29.95 "HgN/A
1:50 AM50 °FPassing clouds.7 mph94%29.95 "HgN/A
1:20 AM50 °FPassing clouds.7 mph94%29.95 "HgN/A
12:50 AM52 °FClear.7 mph94%29.95 "Hg10 mi
12:20 AM52 °FClear.7 mph94%29.95 "Hg10 mi
10:20 PM
Aug 29
54 °FPartly cloudy.5 mph88%29.92 "HgN/A
9:50 PM54 °FSprinkles. Passing clouds.6 mph88%29.92 "HgN/A
9:20 PM55 °FScattered showers. Partly sunny.6 mph82%29.92 "HgN/A
8:50 PM55 °FScattered showers. Broken clouds.7 mph88%29.92 "HgN/A
8:20 PM55 °FScattered showers. Partly sunny.7 mph88%29.89 "HgN/A
7:50 PM57 °FScattered showers. Partly sunny.6 mph82%29.89 "HgN/A
7:20 PM57 °FScattered showers. Scattered clouds.7 mph77%29.89 "HgN/A
6:50 PM57 °FScattered showers. Passing clouds.7 mph72%29.89 "HgN/A
6:20 PM61 °FScattered showers. Scattered clouds.8 mph68%29.86 "HgN/A
5:50 PM61 °FScattered showers. Passing clouds.9 mph63%29.86 "HgN/A
5:20 PM61 °FScattered showers. Passing clouds.7 mph68%29.86 "HgN/A
4:50 PM59 °FScattered showers. Broken clouds.12 mph72%29.86 "HgN/A
4:20 PM61 °FScattered showers. Passing clouds.9 mph72%29.86 "HgN/A
3:50 PM57 °FScattered showers. Scattered clouds.7 mph82%29.86 "HgN/A
3:20 PM59 °FSprinkles. Broken clouds.13 mph72%29.86 "HgN/A
2:50 PM61 °FScattered showers. Partly sunny.10 mph72%29.86 "HgN/A
2:20 PM57 °FScattered showers. Broken clouds.13 mph77%29.83 "HgN/A
1:50 PM59 °FScattered showers. Broken clouds.10 mph72%29.83 "HgN/A
1:20 PM55 °FScattered showers. Broken clouds.13 mph88%29.83 "HgN/A
Weather by CustomWeather, © 2014

See weather overviewHow to use our weather pages